Time,TemperatureF,DewpointF,PressureIn,WindDirection,WindDirectionDegrees,WindSpeedMPH,WindSpeedGustMPH,Humidity,HourlyPrecipIn,Conditions,Clouds,dailyrainin,SoftwareType,DateUTC
2013-05-16 00:01:00,54.1,45.3,29.68,West,264,0.0,5.0,94,0.00,,,0.00,meteohub,2013-05-16 04:01:00,
2013-05-16 00:06:00,54.1,45.3,29.68,West,276,0.0,5.0,93,0.00,,,0.00,meteohub,2013-05-16 04:06:00,
2013-05-16 00:11:00,54.5,45.3,29.68,WNW,283,1.0,7.0,93,0.00,,,0.00,meteohub,2013-05-16 04:11:00,
2013-05-16 00:16:00,54.7,45.3,29.68,WNW,294,0.0,7.0,93,0.00,,,0.00,meteohub,2013-05-16 04:16:00,
2013-05-16 00:21:00,54.9,45.1,29.68,NW,304,0.0,7.0,92,0.00,,,0.00,meteohub,2013-05-16 04:21:00,
2013-05-16 00:26:00,55.0,45.1,29.68,SSE,157,2.0,8.0,92,0.00,,,0.00,meteohub,2013-05-16 04:26:00,
2013-05-16 00:31:00,55.2,45.1,29.68,NW,308,2.0,8.0,91,0.00,,,0.00,meteohub,2013-05-16 04:31:00,
2013-05-16 00:36:00,55.2,45.1,29.68,NW,317,0.0,8.0,91,0.00,,,0.00,meteohub,2013-05-16 04:36:00,
2013-05-16 00:41:00,55.4,45.1,29.67,WNW,294,0.0,5.0,91,0.00,,,0.00,meteohub,2013-05-16 04:41:00,
2013-05-16 00:47:00,55.6,45.1,29.67,SSW,200,0.0,5.0,90,0.00,,,0.00,meteohub,2013-05-16 04:47:00,
2013-05-16 00:52:00,55.6,45.1,29.67,NNW,327,0.0,4.0,90,0.00,,,0.00,meteohub,2013-05-16 04:52:00,
2013-05-16 00:57:00,55.8,45.1,29.67,NW,304,2.0,6.0,90,0.00,,,0.00,meteohub,2013-05-16 04:57:00,
2013-05-16 01:02:00,55.8,45.1,29.67,NW,304,0.0,6.0,89,0.00,,,0.00,meteohub,2013-05-16 05:02:00,
2013-05-16 01:07:00,55.8,45.1,29.67,NW,322,0.0,6.0,89,0.00,,,0.00,meteohub,2013-05-16 05:07:00,
2013-05-16 01:12:00,55.9,45.0,29.68,NW,309,0.0,3.0,89,0.00,,,0.00,meteohub,2013-05-16 05:12:00,
2013-05-16 01:17:00,55.9,45.0,29.67,NW,309,2.0,5.0,89,0.00,,,0.00,meteohub,2013-05-16 05:17:00,
2013-05-16 01:22:00,56.1,45.0,29.67,WNW,292,0.0,5.0,88,0.00,,,0.00,meteohub,2013-05-16 05:22:00,
2013-05-16 01:27:00,56.1,45.0,29.67,WNW,292,0.0,8.0,88,0.00,,,0.00,meteohub,2013-05-16 05:27:00,
2013-05-16 01:32:00,56.3,45.0,29.67,WNW,292,0.0,8.0,87,0.00,,,0.00,meteohub,2013-05-16 05:32:00,
2013-05-16 01:37:00,56.3,44.8,29.67,WNW,292,0.0,4.0,87,0.00,,,0.00,meteohub,2013-05-16 05:37:00,
2013-05-16 01:42:00,56.5,44.8,29.67,NW,308,0.0,2.0,87,0.00,,,0.00,meteohub,2013-05-16 05:42:00,
2013-05-16 01:47:00,56.7,44.8,29.67,WSW,253,0.0,2.0,86,0.00,,,0.00,meteohub,2013-05-16 05:47:00,
2013-05-16 01:52:00,57.0,44.8,29.67,NNW,327,0.0,5.0,85,0.00,,,0.00,meteohub,2013-05-16 05:52:00,
2013-05-16 01:57:00,57.2,44.8,29.67,NNW,327,0.0,5.0,84,0.00,,,0.00,meteohub,2013-05-16 05:57:00,
2013-05-16 02:02:00,57.4,44.8,29.67,NW,325,0.0,2.0,84,0.00,,,0.00,meteohub,2013-05-16 06:02:00,
2013-05-16 02:07:00,57.4,44.6,29.67,NW,325,0.0,2.0,84,0.00,,,0.00,meteohub,2013-05-16 06:07:00,
2013-05-16 02:12:00,57.4,44.6,29.67,NW,325,0.0,2.0,84,0.00,,,0.00,meteohub,2013-05-16 06:12:00,
2013-05-16 02:17:00,57.2,44.6,29.67,WNW,298,3.0,3.0,84,0.00,,,0.00,meteohub,2013-05-16 06:17:00,
2013-05-16 02:22:00,57.0,44.6,29.67,NW,325,0.0,3.0,84,0.00,,,0.00,meteohub,2013-05-16 06:22:00,
2013-05-16 02:27:00,57.0,44.6,29.67,NW,325,0.0,3.0,84,0.00,,,0.00,meteohub,2013-05-16 06:27:00,
2013-05-16 02:32:00,56.8,44.6,29.67,SSE,153,0.0,3.0,84,0.00,,,0.00,meteohub,2013-05-16 06:32:00,
2013-05-16 02:37:00,56.7,44.4,29.66,SSE,153,0.0,2.0,84,0.00,,,0.00,meteohub,2013-05-16 06:37:00,
2013-05-16 02:42:00,56.5,44.4,29.67,SSE,153,0.0,2.0,85,0.00,,,0.00,meteohub,2013-05-16 06:42:00,
2013-05-16 02:47:00,56.3,44.4,29.67,South,183,0.0,2.0,85,0.00,,,0.00,meteohub,2013-05-16 06:47:00,
2013-05-16 02:52:00,56.3,44.4,29.66,South,183,1.0,1.0,85,0.00,,,0.00,meteohub,2013-05-16 06:52:00,
2013-05-16 02:57:00,56.5,44.4,29.66,South,183,0.0,1.0,84,0.00,,,0.00,meteohub,2013-05-16 06:57:00,
2013-05-16 03:02:00,56.7,44.4,29.66,South,183,0.0,1.0,83,0.00,,,0.00,meteohub,2013-05-16 07:02:00,
2013-05-16 03:07:00,56.7,44.4,29.66,South,183,0.0,1.0,83,0.00,,,0.00,meteohub,2013-05-16 07:07:00,
2013-05-16 03:12:00,57.0,44.2,29.66,South,183,0.0,1.0,82,0.00,,,0.00,meteohub,2013-05-16 07:12:00,
2013-05-16 03:17:00,57.4,44.2,29.66,NW,321,0.0,1.0,81,0.00,,,0.00,meteohub,2013-05-16 07:17:00,
2013-05-16 03:22:00,57.7,44.2,29.66,NW,321,0.0,2.0,80,0.00,,,0.00,meteohub,2013-05-16 07:22:00,
2013-05-16 03:27:00,57.7,44.2,29.66,NW,321,0.0,2.0,80,0.00,,,0.00,meteohub,2013-05-16 07:27:00,
2013-05-16 03:32:00,57.7,44.2,29.67,NW,321,0.0,2.0,79,0.00,,,0.00,meteohub,2013-05-16 07:32:00,
2013-05-16 03:37:00,57.6,44.2,29.67,NW,321,0.0,1.0,80,0.00,,,0.00,meteohub,2013-05-16 07:37:00,
2013-05-16 03:42:00,57.4,44.2,29.67,NW,319,0.0,2.0,80,0.00,,,0.00,meteohub,2013-05-16 07:42:00,
2013-05-16 03:47:00,57.2,44.2,29.66,NW,320,0.0,2.0,80,0.00,,,0.00,meteohub,2013-05-16 07:47:00,
2013-05-16 03:52:00,57.0,44.2,29.66,NW,320,0.0,2.0,81,0.00,,,0.00,meteohub,2013-05-16 07:52:00,
2013-05-16 03:57:00,56.8,44.2,29.66,NW,319,0.0,2.0,81,0.00,,,0.00,meteohub,2013-05-16 07:57:00,
2013-05-16 04:02:00,56.7,44.1,29.66,NW,320,0.0,3.0,81,0.00,,,0.00,meteohub,2013-05-16 08:02:00,
2013-05-16 04:07:00,56.5,44.1,29.66,NW,304,0.0,3.0,82,0.00,,,0.00,meteohub,2013-05-16 08:07:00,
2013-05-16 04:12:00,56.3,44.1,29.67,NW,304,0.0,3.0,81,0.00,,,0.00,meteohub,2013-05-16 08:12:00,
2013-05-16 04:17:00,56.1,44.1,29.67,NW,304,2.0,3.0,81,0.00,,,0.00,meteohub,2013-05-16 08:17:00,
2013-05-16 04:22:00,55.9,44.1,29.67,NW,305,2.0,3.0,81,0.00,,,0.00,meteohub,2013-05-16 08:22:00,
2013-05-16 04:27:00,55.9,44.1,29.67,NW,305,0.0,4.0,80,0.00,,,0.00,meteohub,2013-05-16 08:27:00,
2013-05-16 04:32:00,55.9,44.1,29.67,NW,304,0.0,4.0,80,0.00,,,0.00,meteohub,2013-05-16 08:32:00,
2013-05-16 04:37:00,55.8,44.1,29.67,SSW,203,0.0,4.0,80,0.00,,,0.00,meteohub,2013-05-16 08:37:00,
2013-05-16 04:42:00,55.6,44.1,29.67,SSW,204,0.0,2.0,80,0.00,,,0.00,meteohub,2013-05-16 08:42:00,
2013-05-16 04:47:00,55.2,44.1,29.67,SSW,208,0.0,2.0,79,0.00,,,0.00,meteohub,2013-05-16 08:47:00,
2013-05-16 04:52:00,55.0,43.9,29.67,SSW,208,0.0,1.0,79,0.00,,,0.00,meteohub,2013-05-16 08:52:00,
2013-05-16 04:57:00,54.7,43.9,29.67,SSW,208,0.0,1.0,80,0.00,,,0.00,meteohub,2013-05-16 08:57:00,
2013-05-16 05:02:00,54.3,43.9,29.67,SSW,208,0.0,1.0,79,0.00,,,0.00,meteohub,2013-05-16 09:02:00,
2013-05-16 05:07:00,54.1,43.9,29.67,SSW,207,0.0,0.0,79,0.00,,,0.00,meteohub,2013-05-16 09:07:00,
2013-05-16 05:12:00,53.8,43.9,29.67,SSW,207,0.0,0.0,79,0.00,,,0.00,meteohub,2013-05-16 09:12:00,
2013-05-16 05:17:00,53.4,43.9,29.67,SSW,208,0.0,0.0,80,0.00,,,0.00,meteohub,2013-05-16 09:17:00,
2013-05-16 05:22:00,53.2,43.9,29.67,SSW,208,0.0,0.0,81,0.00,,,0.00,meteohub,2013-05-16 09:22:00,
2013-05-16 05:27:00,52.7,43.9,29.67,SSW,208,0.0,0.0,82,0.00,,,0.00,meteohub,2013-05-16 09:27:00,
2013-05-16 05:32:00,52.2,43.9,29.67,SSW,208,0.0,1.0,83,0.00,,,0.00,meteohub,2013-05-16 09:32:00,
2013-05-16 05:37:00,51.4,43.9,29.67,SSW,208,0.0,2.0,84,0.00,,,0.00,meteohub,2013-05-16 09:37:00,
2013-05-16 05:42:00,51.1,43.9,29.67,SSW,208,0.0,2.0,85,0.00,,,0.00,meteohub,2013-05-16 09:42:00,
2013-05-16 05:47:00,50.7,43.9,29.67,SSW,209,0.0,2.0,85,0.00,,,0.00,meteohub,2013-05-16 09:47:00,
2013-05-16 05:52:00,50.7,43.9,29.67,WNW,294,0.0,1.0,86,0.00,,,0.00,meteohub,2013-05-16 09:52:00,
2013-05-16 05:57:00,50.7,43.9,29.68,WNW,294,0.0,1.0,86,0.00,,,0.00,meteohub,2013-05-16 09:57:00,
2013-05-16 06:02:00,50.9,43.9,29.67,WNW,294,0.0,1.0,86,0.00,,,0.00,meteohub,2013-05-16 10:02:00,
2013-05-16 06:07:00,50.9,43.7,29.67,WNW,294,0.0,1.0,86,0.00,,,0.00,meteohub,2013-05-16 10:07:00,
2013-05-16 06:12:00,50.9,43.7,29.67,WNW,294,0.0,0.0,86,0.00,,,0.00,meteohub,2013-05-16 10:12:00,
2013-05-16 06:17:00,50.9,43.7,29.67,WNW,294,0.0,0.0,86,0.00,,,0.00,meteohub,2013-05-16 10:17:00,
2013-05-16 06:22:00,51.1,43.7,29.67,WNW,294,0.0,0.0,87,0.00,,,0.00,meteohub,2013-05-16 10:22:00,
2013-05-16 06:27:00,51.3,43.7,29.68,WNW,294,0.0,2.0,87,0.00,,,0.00,meteohub,2013-05-16 10:27:00,
2013-05-16 06:32:00,51.4,43.7,29.68,WNW,294,0.0,2.0,87,0.00,,,0.00,meteohub,2013-05-16 10:32:00,
2013-05-16 06:37:00,52.0,43.7,29.68,WNW,294,0.0,2.0,86,0.00,,,0.00,meteohub,2013-05-16 10:37:00,
2013-05-16 06:42:00,52.3,43.5,29.68,WNW,294,0.0,2.0,85,0.00,,,0.00,meteohub,2013-05-16 10:42:00,
2013-05-16 06:47:00,52.9,43.5,29.68,WNW,294,0.0,2.0,83,0.00,,,0.00,meteohub,2013-05-16 10:47:00,
2013-05-16 06:52:00,53.4,43.5,29.68,WNW,298,0.0,2.0,81,0.00,,,0.00,meteohub,2013-05-16 10:52:00,
2013-05-16 06:57:00,54.3,43.5,29.68,WNW,303,0.0,2.0,80,0.00,,,0.00,meteohub,2013-05-16 10:57:00,
2013-05-16 07:02:00,55.0,42.6,29.68,NW,304,0.0,2.0,77,0.00,,,0.00,meteohub,2013-05-16 11:02:00,
2013-05-16 07:07:00,55.8,42.6,29.69,WNW,303,0.0,2.0,76,0.00,,,0.00,meteohub,2013-05-16 11:07:00,
2013-05-16 07:12:00,56.3,42.6,29.69,NW,304,0.0,2.0,74,0.00,,,0.00,meteohub,2013-05-16 11:12:00,
2013-05-16 07:17:00,56.7,42.6,29.69,NW,304,0.0,2.0,73,0.00,,,0.00,meteohub,2013-05-16 11:17:00,
2013-05-16 07:22:00,57.2,42.6,29.69,SSW,198,0.0,2.0,72,0.00,,,0.00,meteohub,2013-05-16 11:22:00,
2013-05-16 07:27:00,57.7,43.5,29.69,NNE,28,0.0,2.0,68,0.00,,,0.00,meteohub,2013-05-16 11:27:00,
2013-05-16 07:32:00,58.6,43.5,29.69,East,98,2.0,5.0,67,0.00,,,0.00,meteohub,2013-05-16 11:32:00,
2013-05-16 07:37:00,59.0,43.5,29.68,ENE,72,0.0,5.0,65,0.00,,,0.00,meteohub,2013-05-16 11:37:00,
2013-05-16 07:42:00,59.7,43.5,29.69,South,169,2.0,5.0,63,0.00,,,0.00,meteohub,2013-05-16 11:42:00,
2013-05-16 07:47:00,60.4,43.5,29.69,NW,313,1.0,6.0,63,0.00,,,0.00,meteohub,2013-05-16 11:47:00,
2013-05-16 07:52:00,60.8,43.7,29.69,SE,142,1.0,6.0,61,0.00,,,0.00,meteohub,2013-05-16 11:52:00,
2013-05-16 07:57:00,61.3,43.7,29.69,ESE,107,1.0,6.0,60,0.00,,,0.00,meteohub,2013-05-16 11:57:00,
2013-05-16 08:02:00,61.7,43.7,29.69,ESE,105,0.0,2.0,60,0.00,,,0.00,meteohub,2013-05-16 12:02:00,
2013-05-16 08:07:00,62.1,43.7,29.69,WNW,302,0.0,2.0,59,0.00,,,0.00,meteohub,2013-05-16 12:07:00,
2013-05-16 08:12:00,62.2,43.7,29.70,WNW,302,0.0,4.0,59,0.00,,,0.00,meteohub,2013-05-16 12:12:00,
2013-05-16 08:17:00,62.2,43.9,29.70,South,181,0.0,4.0,59,0.00,,,0.00,meteohub,2013-05-16 12:17:00,
2013-05-16 08:22:00,62.2,43.9,29.70,NW,325,0.0,4.0,59,0.00,,,0.00,meteohub,2013-05-16 12:22:00,
2013-05-16 08:27:00,62.2,43.9,29.70,NW,325,0.0,4.0,58,0.00,,,0.00,meteohub,2013-05-16 12:27:00,
2013-05-16 08:32:00,62.4,43.9,29.70,NW,308,1.0,4.0,58,0.00,,,0.00,meteohub,2013-05-16 12:32:00,
2013-05-16 08:37:00,63.0,43.9,29.70,NW,304,0.0,3.0,58,0.00,,,0.00,meteohub,2013-05-16 12:37:00,
2013-05-16 08:42:00,63.5,43.9,29.70,NW,305,0.0,3.0,58,0.00,,,0.00,meteohub,2013-05-16 12:42:00,
2013-05-16 08:47:00,64.0,43.9,29.70,NW,305,0.0,3.0,57,0.00,,,0.00,meteohub,2013-05-16 12:47:00,
2013-05-16 08:52:00,65.1,43.9,29.70,NW,311,1.0,2.0,56,0.00,,,0.00,meteohub,2013-05-16 12:52:00,
2013-05-16 08:57:00,65.8,44.1,29.70,NW,311,0.0,2.0,55,0.00,,,0.00,meteohub,2013-05-16 12:57:00,
2013-05-16 09:02:00,66.0,44.1,29.70,NW,311,1.0,2.0,53,0.00,,,0.00,meteohub,2013-05-16 13:02:00,
2013-05-16 09:07:00,66.0,44.1,29.70,West,266,0.0,4.0,54,0.00,,,0.00,meteohub,2013-05-16 13:07:00,
2013-05-16 09:12:00,65.8,44.2,29.70,West,266,0.0,4.0,53,0.00,,,0.00,meteohub,2013-05-16 13:12:00,
2013-05-16 09:17:00,65.8,44.2,29.71,West,267,0.0,4.0,54,0.00,,,0.00,meteohub,2013-05-16 13:17:00,
2013-05-16 09:22:00,66.0,44.2,29.70,NW,326,0.0,2.0,54,0.00,,,0.00,meteohub,2013-05-16 13:22:00,
2013-05-16 09:27:00,66.4,44.2,29.71,WNW,302,1.0,4.0,54,0.00,,,0.00,meteohub,2013-05-16 13:27:00,
2013-05-16 09:32:00,66.7,44.4,29.71,NW,307,2.0,4.0,52,0.00,,,0.00,meteohub,2013-05-16 13:32:00,
2013-05-16 09:37:00,67.5,44.4,29.71,NNW,327,2.0,5.0,51,0.00,,,0.00,meteohub,2013-05-16 13:37:00,
2013-05-16 09:42:00,68.2,44.4,29.71,NW,319,1.0,5.0,50,0.00,,,0.00,meteohub,2013-05-16 13:42:00,
2013-05-16 09:47:00,68.7,44.4,29.71,West,281,2.0,5.0,46,0.00,,,0.00,meteohub,2013-05-16 13:47:00,
2013-05-16 09:52:00,69.1,44.6,29.72,WNW,293,1.0,6.0,48,0.00,,,0.00,meteohub,2013-05-16 13:52:00,
2013-05-16 09:57:00,69.8,43.7,29.72,SE,146,4.0,6.0,48,0.00,,,0.00,meteohub,2013-05-16 13:57:00,
2013-05-16 10:02:00,70.2,43.7,29.72,NNW,338,0.0,6.0,47,0.00,,,0.00,meteohub,2013-05-16 14:02:00,
2013-05-16 10:07:00,70.2,43.9,29.72,NW,309,0.0,5.0,43,0.00,,,0.00,meteohub,2013-05-16 14:07:00,
2013-05-16 10:12:00,70.5,43.9,29.72,NW,326,1.0,7.0,43,0.00,,,0.00,meteohub,2013-05-16 14:12:00,
2013-05-16 10:17:00,71.1,43.9,29.72,South,175,1.0,7.0,41,0.00,,,0.00,meteohub,2013-05-16 14:17:00,
2013-05-16 10:22:00,71.2,44.1,29.73,WNW,295,0.0,7.0,43,0.00,,,0.00,meteohub,2013-05-16 14:22:00,
2013-05-16 10:27:00,71.2,44.1,29.72,NNW,338,0.0,7.0,39,0.00,,,0.00,meteohub,2013-05-16 14:27:00,
2013-05-16 10:32:00,71.8,44.1,29.72,NW,306,0.0,9.0,40,0.00,,,0.00,meteohub,2013-05-16 14:32:00,
2013-05-16 10:37:00,72.3,44.1,29.73,NNW,327,1.0,10.0,41,0.00,,,0.00,meteohub,2013-05-16 14:37:00,
2013-05-16 10:42:00,72.9,44.1,29.72,West,270,0.0,10.0,41,0.00,,,0.00,meteohub,2013-05-16 14:42:00,
2013-05-16 10:47:00,73.2,44.1,29.72,NW,307,1.0,6.0,37,0.00,,,0.00,meteohub,2013-05-16 14:47:00,
2013-05-16 10:52:00,73.2,44.2,29.72,ESE,115,1.0,6.0,38,0.00,,,0.00,meteohub,2013-05-16 14:52:00,
2013-05-16 10:57:00,73.2,44.2,29.72,ENE,67,1.0,6.0,37,0.00,,,0.00,meteohub,2013-05-16 14:57:00,
2013-05-16 11:02:00,73.6,44.2,29.72,NW,314,2.0,6.0,37,0.00,,,0.00,meteohub,2013-05-16 15:02:00,
2013-05-16 11:07:00,73.4,44.2,29.72,NW,320,2.0,6.0,35,0.00,,,0.00,meteohub,2013-05-16 15:07:00,
2013-05-16 11:12:00,72.9,44.2,29.72,NW,321,8.0,8.0,37,0.00,,,0.00,meteohub,2013-05-16 15:12:00,
2013-05-16 11:17:00,72.7,44.4,29.72,NNW,338,1.0,8.0,38,0.00,,,0.00,meteohub,2013-05-16 15:17:00,
2013-05-16 11:22:00,73.2,44.4,29.72,NE,45,1.0,8.0,38,0.00,,,0.00,meteohub,2013-05-16 15:22:00,
2013-05-16 11:27:00,74.1,44.4,29.72,WNW,299,2.0,8.0,38,0.00,,,0.00,meteohub,2013-05-16 15:27:00,
2013-05-16 11:32:00,75.0,44.4,29.72,NNW,331,5.0,8.0,35,0.00,,,0.00,meteohub,2013-05-16 15:32:00,
2013-05-16 11:37:00,75.0,44.4,29.71,North,351,1.0,9.0,34,0.00,,,0.00,meteohub,2013-05-16 15:37:00,
2013-05-16 11:42:00,75.4,44.6,29.71,NE,38,1.0,9.0,33,0.00,,,0.00,meteohub,2013-05-16 15:42:00,
2013-05-16 11:47:00,75.6,44.6,29.71,NNW,338,2.0,9.0,35,0.00,,,0.00,meteohub,2013-05-16 15:47:00,
2013-05-16 11:52:00,75.7,44.6,29.71,WNW,287,3.0,8.0,33,0.00,,,0.00,meteohub,2013-05-16 15:52:00,
2013-05-16 11:57:00,75.9,44.6,29.70,North,349,5.0,8.0,32,0.00,,,0.00,meteohub,2013-05-16 15:57:00,
2013-05-16 12:02:00,75.9,44.6,29.70,WNW,302,2.0,8.0,33,0.00,,,0.00,meteohub,2013-05-16 16:02:00,
2013-05-16 12:07:00,76.3,44.8,29.70,NNW,328,4.0,11.0,34,0.00,,,0.00,meteohub,2013-05-16 16:07:00,
2013-05-16 12:12:00,76.5,44.8,29.70,NW,304,2.0,11.0,34,0.00,,,0.00,meteohub,2013-05-16 16:12:00,
2013-05-16 12:17:00,77.2,44.8,29.70,North,349,5.0,8.0,34,0.00,,,0.00,meteohub,2013-05-16 16:17:00,
2013-05-16 12:22:00,76.8,45.0,29.69,North,350,5.0,10.0,30,0.00,,,0.00,meteohub,2013-05-16 16:22:00,
2013-05-16 12:27:00,76.6,45.0,29.69,NW,315,3.0,10.0,30,0.00,,,0.00,meteohub,2013-05-16 16:27:00,
2013-05-16 12:32:00,76.8,45.0,29.69,NNW,340,5.0,10.0,31,0.00,,,0.00,meteohub,2013-05-16 16:32:00,
2013-05-16 12:37:00,77.4,45.0,29.69,ESE,103,1.0,8.0,32,0.00,,,0.00,meteohub,2013-05-16 16:37:00,
2013-05-16 12:42:00,77.7,45.0,29.69,South,177,4.0,8.0,35,0.00,,,0.00,meteohub,2013-05-16 16:42:00,
2013-05-16 12:47:00,78.1,45.0,29.69,NW,323,7.0,11.0,31,0.00,,,0.00,meteohub,2013-05-16 16:47:00,
2013-05-16 12:52:00,77.7,45.0,29.68,NNW,328,0.0,11.0,33,0.00,,,0.00,meteohub,2013-05-16 16:52:00,
2013-05-16 12:57:00,78.1,45.0,29.68,SSE,163,2.0,11.0,31,0.00,,,0.00,meteohub,2013-05-16 16:57:00,
2013-05-16 13:02:00,78.1,45.1,29.68,NW,313,1.0,10.0,31,0.00,,,0.00,meteohub,2013-05-16 17:02:00,
2013-05-16 13:07:00,78.3,45.1,29.68,NNW,342,5.0,10.0,30,0.00,,,0.00,meteohub,2013-05-16 17:07:00,
2013-05-16 13:12:00,78.4,45.1,29.68,NW,319,2.0,10.0,30,0.00,,,0.00,meteohub,2013-05-16 17:12:00,
2013-05-16 13:17:00,78.6,45.3,29.67,NW,307,6.0,10.0,32,0.00,,,0.00,meteohub,2013-05-16 17:17:00,
2013-05-16 13:22:00,78.6,45.3,29.67,North,5,4.0,9.0,31,0.00,,,0.00,meteohub,2013-05-16 17:22:00,
2013-05-16 13:27:00,79.2,45.3,29.67,WNW,303,1.0,9.0,31,0.00,,,0.00,meteohub,2013-05-16 17:27:00,
2013-05-16 13:32:00,79.7,45.5,29.67,NNW,346,8.0,9.0,31,0.00,,,0.00,meteohub,2013-05-16 17:32:00,
2013-05-16 13:37:00,79.5,45.5,29.67,NW,319,1.0,10.0,30,0.00,,,0.00,meteohub,2013-05-16 17:37:00,
2013-05-16 13:42:00,79.3,45.5,29.67,SSE,153,6.0,11.0,32,0.00,,,0.00,meteohub,2013-05-16 17:42:00,
2013-05-16 13:47:00,79.3,45.7,29.67,NNW,336,9.0,11.0,30,0.00,,,0.00,meteohub,2013-05-16 17:47:00,
2013-05-16 13:52:00,79.3,45.7,29.66,NW,315,4.0,11.0,30,0.00,,,0.00,meteohub,2013-05-16 17:52:00,
2013-05-16 13:57:00,79.7,45.9,29.67,NNW,340,1.0,11.0,32,0.00,,,0.00,meteohub,2013-05-16 17:57:00,
2013-05-16 14:02:00,79.5,45.9,29.66,NNW,348,6.0,11.0,28,0.00,,,0.00,meteohub,2013-05-16 18:02:00,
2013-05-16 14:07:00,79.3,45.9,29.67,WNW,292,8.0,16.0,30,0.00,,,0.00,meteohub,2013-05-16 18:07:00,
2013-05-16 14:12:00,79.7,46.0,29.67,NW,306,5.0,16.0,31,0.00,,,0.00,meteohub,2013-05-16 18:12:00,
2013-05-16 14:17:00,79.9,46.0,29.67,NNW,342,6.0,16.0,29,0.00,,,0.00,meteohub,2013-05-16 18:17:00,
2013-05-16 14:22:00,79.9,46.2,29.67,WNW,296,8.0,16.0,29,0.00,,,0.00,meteohub,2013-05-16 18:22:00,
2013-05-16 14:27:00,79.5,46.2,29.67,NW,326,6.0,12.0,29,0.00,,,0.00,meteohub,2013-05-16 18:27:00,
2013-05-16 14:32:00,79.9,46.2,29.67,SSE,161,6.0,12.0,29,0.00,,,0.00,meteohub,2013-05-16 18:32:00,
2013-05-16 14:37:00,79.9,46.2,29.66,SE,138,2.0,12.0,29,0.00,,,0.00,meteohub,2013-05-16 18:37:00,
2013-05-16 14:42:00,80.2,46.2,29.66,NW,317,0.0,11.0,31,0.00,,,0.00,meteohub,2013-05-16 18:42:00,
2013-05-16 14:47:00,80.4,46.2,29.65,NW,307,12.0,12.0,30,0.00,,,0.00,meteohub,2013-05-16 18:47:00,
2013-05-16 14:52:00,79.9,46.2,29.66,West,268,2.0,12.0,28,0.00,,,0.00,meteohub,2013-05-16 18:52:00,
2013-05-16 14:57:00,79.9,46.4,29.65,NW,325,3.0,12.0,31,0.00,,,0.00,meteohub,2013-05-16 18:57:00,
2013-05-16 15:02:00,80.1,46.4,29.65,NW,318,0.0,12.0,31,0.00,,,0.00,meteohub,2013-05-16 19:02:00,
2013-05-16 15:07:00,80.4,46.4,29.65,NNW,336,6.0,9.0,28,0.00,,,0.00,meteohub,2013-05-16 19:07:00,
2013-05-16 15:12:00,80.8,46.4,29.65,SE,144,4.0,10.0,30,0.00,,,0.00,meteohub,2013-05-16 19:12:00,
2013-05-16 15:17:00,81.0,46.4,29.65,East,93,3.0,10.0,29,0.00,,,0.00,meteohub,2013-05-16 19:17:00,
2013-05-16 15:22:00,81.0,46.6,29.65,NNW,345,2.0,14.0,30,0.00,,,0.00,meteohub,2013-05-16 19:22:00,
2013-05-16 15:27:00,81.7,46.6,29.65,SW,219,1.0,14.0,31,0.00,,,0.00,meteohub,2013-05-16 19:27:00,
2013-05-16 15:32:00,81.7,46.6,29.65,NNW,339,3.0,10.0,29,0.00,,,0.00,meteohub,2013-05-16 19:32:00,
2013-05-16 15:37:00,81.0,46.8,29.65,NNW,348,5.0,11.0,28,0.00,,,0.00,meteohub,2013-05-16 19:37:00,
2013-05-16 15:42:00,81.1,46.8,29.65,NW,317,1.0,11.0,30,0.00,,,0.00,meteohub,2013-05-16 19:42:00,
2013-05-16 15:47:00,81.3,46.9,29.65,North,0,6.0,11.0,29,0.00,,,0.00,meteohub,2013-05-16 19:47:00,
2013-05-16 15:52:00,81.1,46.9,29.65,NNW,327,5.0,9.0,28,0.00,,,0.00,meteohub,2013-05-16 19:52:00,
2013-05-16 15:57:00,81.1,46.9,29.65,NW,313,6.0,10.0,29,0.00,,,0.00,meteohub,2013-05-16 19:57:00,
2013-05-16 16:02:00,81.7,47.1,29.65,NNW,333,1.0,10.0,28,0.00,,,0.00,meteohub,2013-05-16 20:02:00,
2013-05-16 16:07:00,81.9,47.1,29.65,NNW,334,4.0,10.0,29,0.00,,,0.00,meteohub,2013-05-16 20:07:00,
2013-05-16 16:12:00,81.7,47.1,29.65,SE,134,4.0,7.0,29,0.00,,,0.00,meteohub,2013-05-16 20:12:00,
2013-05-16 16:17:00,81.7,47.1,29.65,NW,319,4.0,7.0,29,0.00,,,0.00,meteohub,2013-05-16 20:17:00,
2013-05-16 16:22:00,81.5,47.3,29.65,NW,319,5.0,12.0,28,0.00,,,0.00,meteohub,2013-05-16 20:22:00,
2013-05-16 16:27:00,81.3,47.3,29.64,NE,40,2.0,12.0,27,0.00,,,0.00,meteohub,2013-05-16 20:27:00,
2013-05-16 16:32:00,81.0,47.3,29.64,NW,315,1.0,11.0,29,0.00,,,0.00,meteohub,2013-05-16 20:32:00,
2013-05-16 16:37:00,80.8,47.3,29.64,NW,322,6.0,11.0,28,0.00,,,0.00,meteohub,2013-05-16 20:37:00,
2013-05-16 16:42:00,80.8,47.3,29.64,North,355,1.0,11.0,31,0.00,,,0.00,meteohub,2013-05-16 20:42:00,
2013-05-16 16:47:00,80.4,47.3,29.64,NW,326,4.0,9.0,28,0.00,,,0.00,meteohub,2013-05-16 20:47:00,
2013-05-16 16:52:00,80.6,47.3,29.65,NNW,339,4.0,9.0,30,0.00,,,0.00,meteohub,2013-05-16 20:52:00,
2013-05-16 16:57:00,80.4,47.5,29.65,NNW,331,3.0,8.0,28,0.00,,,0.00,meteohub,2013-05-16 20:57:00,
2013-05-16 17:02:00,80.4,47.5,29.65,NW,322,4.0,8.0,28,0.00,,,0.00,meteohub,2013-05-16 21:02:00,
2013-05-16 17:07:00,80.2,47.5,29.65,East,94,0.0,18.0,28,0.00,,,0.00,meteohub,2013-05-16 21:07:00,
2013-05-16 17:12:00,80.1,47.5,29.65,WNW,300,2.0,18.0,29,0.00,,,0.00,meteohub,2013-05-16 21:12:00,
2013-05-16 17:17:00,79.9,47.7,29.64,WNW,290,4.0,18.0,28,0.00,,,0.00,meteohub,2013-05-16 21:17:00,
2013-05-16 17:22:00,79.9,47.7,29.64,NNW,341,0.0,10.0,29,0.00,,,0.00,meteohub,2013-05-16 21:22:00,
2013-05-16 17:27:00,79.9,47.7,29.64,NNW,342,1.0,11.0,30,0.00,,,0.00,meteohub,2013-05-16 21:27:00,
2013-05-16 17:32:00,80.1,47.7,29.64,NW,313,0.0,11.0,28,0.00,,,0.00,meteohub,2013-05-16 21:32:00,
2013-05-16 17:37:00,79.5,47.7,29.64,NW,311,7.0,8.0,28,0.00,,,0.00,meteohub,2013-05-16 21:37:00,
2013-05-16 17:42:00,79.5,47.8,29.64,NNW,329,0.0,11.0,28,0.00,,,0.00,meteohub,2013-05-16 21:42:00,
2013-05-16 17:47:00,79.7,47.8,29.64,NW,308,0.0,11.0,29,0.00,,,0.00,meteohub,2013-05-16 21:47:00,
2013-05-16 17:52:00,79.7,47.8,29.64,NNW,342,0.0,11.0,28,0.00,,,0.00,meteohub,2013-05-16 21:52:00,
2013-05-16 17:57:00,79.3,47.8,29.64,NNW,334,2.0,6.0,28,0.00,,,0.00,meteohub,2013-05-16 21:57:00,
2013-05-16 18:02:00,79.3,47.8,29.64,North,5,0.0,7.0,28,0.00,,,0.00,meteohub,2013-05-16 22:02:00,
2013-05-16 18:07:00,79.2,47.8,29.65,NW,326,0.0,7.0,27,0.00,,,0.00,meteohub,2013-05-16 22:07:00,
2013-05-16 18:12:00,79.0,47.8,29.65,NW,317,0.0,6.0,29,0.00,,,0.00,meteohub,2013-05-16 22:12:00,
2013-05-16 18:17:00,78.6,48.0,29.65,NW,312,0.0,5.0,29,0.00,,,0.00,meteohub,2013-05-16 22:17:00,
2013-05-16 18:22:00,78.6,48.0,29.65,ESE,108,0.0,0.0,29,0.00,,,0.00,meteohub,2013-05-16 22:22:00,
2013-05-16 18:27:00,78.4,48.0,29.65,West,281,1.0,9.0,29,0.00,,,0.00,meteohub,2013-05-16 22:27:00,
2013-05-16 18:32:00,78.3,48.0,29.65,NNW,342,3.0,9.0,29,0.00,,,0.00,meteohub,2013-05-16 22:32:00,
2013-05-16 18:37:00,78.1,48.0,29.65,North,355,0.0,9.0,30,0.00,,,0.00,meteohub,2013-05-16 22:37:00,
2013-05-16 18:42:00,77.7,48.0,29.65,West,277,7.0,9.0,30,0.00,,,0.00,meteohub,2013-05-16 22:42:00,
2013-05-16 18:47:00,77.5,48.0,29.65,NNW,333,6.0,7.0,30,0.00,,,0.00,meteohub,2013-05-16 22:47:00,
2013-05-16 18:52:00,77.4,48.2,29.65,NW,315,1.0,8.0,30,0.00,,,0.00,meteohub,2013-05-16 22:52:00,
2013-05-16 18:57:00,77.2,48.2,29.65,NW,318,3.0,8.0,31,0.00,,,0.00,meteohub,2013-05-16 22:57:00,
2013-05-16 19:02:00,77.0,48.2,29.65,NW,316,1.0,8.0,31,0.00,,,0.00,meteohub,2013-05-16 23:02:00,
2013-05-16 19:07:00,76.8,48.2,29.66,SE,126,0.0,5.0,31,0.00,,,0.00,meteohub,2013-05-16 23:07:00,
2013-05-16 19:12:00,76.6,48.9,29.66,WNW,287,0.0,6.0,31,0.00,,,0.00,meteohub,2013-05-16 23:12:00,
2013-05-16 19:17:00,76.5,49.1,29.66,WNW,300,2.0,6.0,31,0.00,,,0.00,meteohub,2013-05-16 23:17:00,
2013-05-16 19:22:00,76.1,49.1,29.66,WNW,293,1.0,6.0,32,0.00,,,0.00,meteohub,2013-05-16 23:22:00,
2013-05-16 19:27:00,75.9,49.1,29.67,NNW,330,1.0,6.0,32,0.00,,,0.00,meteohub,2013-05-16 23:27:00,
2013-05-16 19:32:00,75.6,48.9,29.67,WNW,299,0.0,6.0,33,0.00,,,0.00,meteohub,2013-05-16 23:32:00,
2013-05-16 19:37:00,75.2,48.9,29.68,WNW,300,0.0,6.0,33,0.00,,,0.00,meteohub,2013-05-16 23:37:00,
2013-05-16 19:42:00,74.8,48.2,29.68,WNW,298,0.0,6.0,33,0.00,,,0.00,meteohub,2013-05-16 23:42:00,
2013-05-16 19:47:00,74.5,48.2,29.68,WNW,298,0.0,2.0,33,0.00,,,0.00,meteohub,2013-05-16 23:47:00,
2013-05-16 19:52:00,74.1,48.2,29.68,WNW,298,0.0,2.0,34,0.00,,,0.00,meteohub,2013-05-16 23:52:00,
2013-05-16 19:57:00,73.8,48.0,29.68,WNW,298,0.0,1.0,35,0.00,,,0.00,meteohub,2013-05-16 23:57:00,
2013-05-16 20:02:00,73.2,48.0,29.68,WNW,298,0.0,1.0,36,0.00,,,0.00,meteohub,2013-05-17 00:02:00,
2013-05-16 20:07:00,72.7,48.0,29.69,WNW,298,0.0,0.0,36,0.00,,,0.00,meteohub,2013-05-17 00:07:00,
2013-05-16 20:12:00,72.0,48.0,29.70,WNW,298,0.0,0.0,38,0.00,,,0.00,meteohub,2013-05-17 00:12:00,
2013-05-16 20:17:00,71.2,48.0,29.70,WNW,298,0.0,2.0,38,0.00,,,0.00,meteohub,2013-05-17 00:17:00,
2013-05-16 20:22:00,71.1,48.0,29.70,WNW,298,1.0,4.0,38,0.00,,,0.00,meteohub,2013-05-17 00:22:00,
2013-05-16 20:27:00,71.1,47.8,29.71,WNW,298,0.0,4.0,37,0.00,,,0.00,meteohub,2013-05-17 00:27:00,
2013-05-16 20:32:00,71.1,47.8,29.71,WNW,298,0.0,2.0,38,0.00,,,0.00,meteohub,2013-05-17 00:32:00,
2013-05-16 20:37:00,70.9,47.8,29.73,WNW,298,0.0,2.0,38,0.00,,,0.00,meteohub,2013-05-17 00:37:00,
2013-05-16 20:42:00,70.5,47.8,29.73,East,83,0.0,1.0,36,0.00,,,0.00,meteohub,2013-05-17 00:42:00,
2013-05-16 20:47:00,70.7,47.8,29.73,SSE,149,0.0,4.0,35,0.00,,,0.00,meteohub,2013-05-17 00:47:00,
2013-05-16 20:52:00,70.7,47.8,29.73,NE,40,1.0,4.0,34,0.00,,,0.00,meteohub,2013-05-17 00:52:00,
2013-05-16 20:57:00,70.9,47.8,29.73,WNW,301,2.0,5.0,33,0.00,,,0.00,meteohub,2013-05-17 00:57:00,
2013-05-16 21:02:00,70.9,47.8,29.74,NW,315,0.0,5.0,32,0.00,,,0.00,meteohub,2013-05-17 01:02:00,
2013-05-16 21:07:00,71.1,47.8,29.74,NNW,327,4.0,5.0,31,0.00,,,0.00,meteohub,2013-05-17 01:07:00,
2013-05-16 21:12:00,71.1,47.7,29.74,NNW,341,5.0,5.0,31,0.00,,,0.00,meteohub,2013-05-17 01:12:00,
2013-05-16 21:17:00,71.1,47.7,29.74,NW,309,4.0,7.0,30,0.00,,,0.00,meteohub,2013-05-17 01:17:00,
2013-05-16 21:22:00,71.1,47.7,29.74,WNW,298,0.0,7.0,31,0.00,,,0.00,meteohub,2013-05-17 01:22:00,
2013-05-16 21:27:00,70.7,46.9,29.75,WNW,298,0.0,7.0,31,0.00,,,0.00,meteohub,2013-05-17 01:27:00,
2013-05-16 21:32:00,70.3,47.5,29.75,WNW,298,0.0,5.0,31,0.00,,,0.00,meteohub,2013-05-17 01:32:00,
2013-05-16 21:37:00,70.0,47.5,29.75,WNW,298,0.0,3.0,32,0.00,,,0.00,meteohub,2013-05-17 01:37:00,
2013-05-16 21:42:00,69.8,47.5,29.75,WNW,297,0.0,2.0,32,0.00,,,0.00,meteohub,2013-05-17 01:42:00,
2013-05-16 21:47:00,69.6,47.3,29.75,WNW,298,0.0,2.0,32,0.00,,,0.00,meteohub,2013-05-17 01:47:00,
2013-05-16 21:52:00,69.3,47.3,29.75,WNW,297,0.0,2.0,33,0.00,,,0.00,meteohub,2013-05-17 01:52:00,
2013-05-16 21:57:00,68.7,47.3,29.75,West,263,0.0,2.0,33,0.00,,,0.00,meteohub,2013-05-17 01:57:00,
2013-05-16 22:02:00,68.5,47.3,29.75,West,263,1.0,5.0,33,0.00,,,0.00,meteohub,2013-05-17 02:02:00,
2013-05-16 22:07:00,68.5,47.3,29.75,ESE,107,1.0,5.0,32,0.00,,,0.00,meteohub,2013-05-17 02:07:00,
2013-05-16 22:12:00,68.4,47.3,29.76,WNW,294,0.0,5.0,33,0.00,,,0.00,meteohub,2013-05-17 02:12:00,
2013-05-16 22:17:00,68.2,47.3,29.76,WNW,294,0.0,4.0,33,0.00,,,0.00,meteohub,2013-05-17 02:17:00,
2013-05-16 22:22:00,68.0,47.3,29.76,WNW,294,0.0,2.0,33,0.00,,,0.00,meteohub,2013-05-17 02:22:00,
2013-05-16 22:27:00,67.8,47.3,29.76,WNW,294,0.0,2.0,34,0.00,,,0.00,meteohub,2013-05-17 02:27:00,
2013-05-16 22:32:00,67.6,47.1,29.77,WNW,294,0.0,2.0,34,0.00,,,0.00,meteohub,2013-05-17 02:32:00,
2013-05-16 22:37:00,67.3,47.1,29.76,West,263,0.0,1.0,35,0.00,,,0.00,meteohub,2013-05-17 02:37:00,
2013-05-16 22:42:00,66.9,47.1,29.77,West,273,0.0,1.0,35,0.00,,,0.00,meteohub,2013-05-17 02:42:00,
2013-05-16 22:47:00,66.7,47.1,29.78,West,281,1.0,4.0,34,0.00,,,0.00,meteohub,2013-05-17 02:47:00,
2013-05-16 22:52:00,66.7,47.1,29.78,West,281,0.0,4.0,36,0.00,,,0.00,meteohub,2013-05-17 02:52:00,
2013-05-16 22:57:00,66.6,47.1,29.78,West,281,0.0,4.0,35,0.00,,,0.00,meteohub,2013-05-17 02:57:00,
2013-05-16 23:02:00,66.4,47.1,29.78,West,281,0.0,2.0,35,0.00,,,0.00,meteohub,2013-05-17 03:02:00,
2013-05-16 23:07:00,66.2,47.1,29.78,West,281,0.0,2.0,35,0.00,,,0.00,meteohub,2013-05-17 03:07:00,
2013-05-16 23:12:00,66.0,46.9,29.78,West,281,0.0,2.0,35,0.00,,,0.00,meteohub,2013-05-17 03:12:00,
2013-05-16 23:17:00,66.0,46.9,29.78,NNW,344,0.0,2.0,36,0.00,,,0.00,meteohub,2013-05-17 03:17:00,
2013-05-16 23:22:00,66.0,46.9,29.78,WNW,298,0.0,5.0,36,0.00,,,0.00,meteohub,2013-05-17 03:22:00,
2013-05-16 23:27:00,65.8,46.9,29.78,WNW,298,0.0,5.0,37,0.00,,,0.00,meteohub,2013-05-17 03:27:00,
2013-05-16 23:32:00,65.7,46.9,29.79,WNW,298,0.0,5.0,37,0.00,,,0.00,meteohub,2013-05-17 03:32:00,
2013-05-16 23:37:00,65.1,46.9,29.79,WNW,298,0.0,1.0,38,0.00,,,0.00,meteohub,2013-05-17 03:37:00,
2013-05-16 23:42:00,64.9,46.9,29.79,WNW,298,0.0,1.0,38,0.00,,,0.00,meteohub,2013-05-17 03:42:00,
2013-05-16 23:47:00,64.6,46.9,29.80,WNW,298,0.0,1.0,39,0.00,,,0.00,meteohub,2013-05-17 03:47:00,
2013-05-16 23:52:00,64.0,46.8,29.80,WNW,298,0.0,1.0,40,0.00,,,0.00,meteohub,2013-05-17 03:52:00,
2013-05-16 23:57:00,63.3,46.8,29.80,WNW,298,0.0,0.0,40,0.00,,,0.00,meteohub,2013-05-17 03:57:00,